Location: Chin
(49.7667°N, 112.4500°W)
Time: 02:03:51
(UTC+00:00)

Tiangong - Visible Passes

Search period start: 09 December 2021 00:00
Search period end: 19 December 2021 00:00
Orbit: 379 x 385 km, 41.5° (Epoch: 08 December)

Date Brightness Start Highest point End Pass type
(mag) Time Alt. Az. Time Alt. Az. Time Alt. Az.
10 Dec 3.9 01:45:10 10° S 01:45:34 11° S 01:45:34 11° S visible
11 Dec 4.2 02:19:54 10° SW 02:20:06 11° SSW 02:20:06 11° SSW visible
12 Dec 3.4 01:19:54 10° SSW 01:21:44 14° SSE 01:22:26 14° SSE visible
13 Dec 3.8 00:20:20 10° S 00:21:25 11° SSE 00:22:31 10° SE visible
13 Dec 3.5 01:55:12 10° SW 01:56:53 17° SSW 01:56:53 17° SSW visible
14 Dec 3.4 00:54:57 10° SW 00:57:06 17° S 00:59:12 10° SE visible
14 Dec 4.4 02:31:06 10° SW 02:31:21 11° SW 02:31:21 11° SW visible
15 Dec 3.3 01:30:33 10° SW 01:32:50 18° S 01:33:40 17° SSE visible
16 Dec 3.5 00:30:08 10° SW 00:32:24 18° S 00:34:41 10° SE visible
16 Dec 3.8 02:06:43 10° SW 02:08:11 14° SSW 02:08:11 14° SSW visible
17 Dec 3.6 01:05:58 10° SW 01:08:06 17° S 01:10:14 10° SE visible
18 Dec 3.6 00:05:22 10° SW 00:07:39 18° S 00:09:55 10° SE visible
18 Dec 4.0 01:42:39 10° SW 01:43:42 11° SSW 01:44:44 10° S visible
